Tiempo cada hora Ablis

Hoy, 20 Octubre, Martes

Tiempo Temperatura Precipitaciones Viento Presión Humedad
00:00 +10°C° 0 mm 4 mps 743 mmHg 79%
01:00 +10°C° 0 mm 4 mps 743 mmHg 78%
02:00 +11°C° 0 mm 4 mps 743 mmHg 77%
03:00 +11°C° 0 mm 4 mps 742 mmHg 76%
04:00 +12°C° 0.1 mm 5 mps 743 mmHg 76%
05:00 +13°C° 0.1 mm 6 mps 743 mmHg 76%
06:00 +13°C° 0.1 mm 6 mps 743 mmHg 77%
07:00 +14°C° 0 mm 7 mps 743 mmHg 75%
08:00 +14°C° 0 mm 7 mps 743 mmHg 73%
09:00 +15°C° 0 mm 7 mps 743 mmHg 72%
10:00 +16°C° 0.1 mm 7 mps 743 mmHg 71%
11:00 +16°C° 0.1 mm 7 mps 743 mmHg 71%
12:00 +17°C° 0.1 mm 7 mps 743 mmHg 71%
13:00 +16°C° 0 mm 7 mps 743 mmHg 71%
14:00 +16°C° 0 mm 6 mps 743 mmHg 71%
15:00 +15°C° 0 mm 6 mps 742 mmHg 71%
16:00 +15°C° 0 mm 5 mps 742 mmHg 73%
17:00 +15°C° 0 mm 5 mps 741 mmHg 75%
18:00 +14°C° 0 mm 4 mps 741 mmHg 77%
19:00 +14°C° 0.9 mm 5 mps 741 mmHg 81%
20:00 +14°C° 0.9 mm 5 mps 741 mmHg 85%
21:00 +14°C° 0.9 mm 5 mps 740 mmHg 88%
22:00 +14°C° 0.7 mm 6 mps 739 mmHg 85%
23:00 +14°C° 0.7 mm 6 mps 739 mmHg 81%

Mañana, 21 Octubre, Miércoles

Tiempo Temperatura Precipitaciones Viento Presión Humedad
00:00 +14°C° 0.7 mm 6 mps 738 mmHg 77%
01:00 +15°C° 0 mm 7 mps 737 mmHg 71%
02:00 +15°C° 0 mm 7 mps 737 mmHg 66%
03:00 +16°C° 0 mm 7 mps 736 mmHg 61%
04:00 +16°C° 0 mm 8 mps 736 mmHg 60%
05:00 +17°C° 0 mm 9 mps 737 mmHg 60%
06:00 +17°C° 0 mm 10 mps 737 mmHg 60%
07:00 +17°C° 0.3 mm 9 mps 738 mmHg 65%
08:00 +16°C° 0.3 mm 8 mps 738 mmHg 70%
09:00 +16°C° 0.3 mm 8 mps 739 mmHg 76%
10:00 +16°C° 0.1 mm 8 mps 740 mmHg 74%
11:00 +17°C° 0.1 mm 8 mps 741 mmHg 73%
12:00 +17°C° 0.1 mm 8 mps 741 mmHg 72%
13:00 +18°C° 0.1 mm 7 mps 741 mmHg 70%
14:00 +18°C° 0.1 mm 7 mps 742 mmHg 67%
15:00 +20°C° 0.1 mm 6 mps 742 mmHg 64%
16:00 +19°C° 0.1 mm 5 mps 742 mmHg 69%
17:00 +17°C° 0.1 mm 5 mps 742 mmHg 73%
18:00 +17°C° 0.1 mm 4 mps 743 mmHg 78%
19:00 +17°C° 0 mm 4 mps 743 mmHg 79%
20:00 +15°C° 0 mm 4 mps 743 mmHg 81%
21:00 +15°C° 0 mm 4 mps 743 mmHg 82%
22:00 +15°C° 0.1 mm 4 mps 743 mmHg 82%
23:00 +15°C° 0.1 mm 5 mps 743 mmHg 83%

Pasado mañana, 22 Octubre, Jueves

Tiempo Temperatura Precipitaciones Viento Presión Humedad
00:00 +16°C° 0.1 mm 5 mps 743 mmHg 83%
01:00 +15°C° 0.2 mm 5 mps 743 mmHg 83%
02:00 +15°C° 0.2 mm 5 mps 743 mmHg 83%
03:00 +15°C° 0.2 mm 5 mps 742 mmHg 83%
04:00 +15°C° 0.4 mm 5 mps 742 mmHg 84%
05:00 +15°C° 0.4 mm 5 mps 742 mmHg 85%
06:00 +15°C° 0.4 mm 6 mps 742 mmHg 86%
07:00 +16°C° 0.1 mm 6 mps 743 mmHg 82%
08:00 +16°C° 0.1 mm 7 mps 743 mmHg 77%
09:00 +17°C° 0.1 mm 7 mps 743 mmHg 73%
10:00 +18°C° 0.2 mm 7 mps 743 mmHg 69%
11:00 +18°C° 0.2 mm 8 mps 743 mmHg 64%
12:00 +20°C° 0.2 mm 8 mps 744 mmHg 60%
13:00 +20°C° 0 mm 8 mps 744 mmHg 59%
14:00 +18°C° 0 mm 8 mps 743 mmHg 58%
15:00 +18°C° 0 mm 8 mps 743 mmHg 57%
16:00 +17°C° 0 mm 7 mps 744 mmHg 61%
17:00 +16°C° 0 mm 6 mps 744 mmHg 64%
18:00 +14°C° 0 mm 6 mps 744 mmHg 68%
19:00 +14°C° 0 mm 6 mps 745 mmHg 72%
20:00 +13°C° 0 mm 6 mps 745 mmHg 77%
21:00 +13°C° 0 mm 6 mps 746 mmHg 81%
22:00 +12°C° 0 mm 5 mps 746 mmHg 84%
23:00 +10°C° 0 mm 5 mps 746 mmHg 86%

23 Octubre, Viernes

Tiempo Temperatura Precipitaciones Viento Presión Humedad
00:00 +10°C° 0 mm 5 mps 747 mmHg 89%
01:00 +9°C° 0 mm 5 mps 747 mmHg 90%
02:00 +10°C° 0 mm 4 mps 747 mmHg 91%
03:00 +10°C° 0 mm 4 mps 747 mmHg 92%
04:00 +8°C° 0 mm 4 mps 748 mmHg 93%
05:00 +8°C° 0 mm 4 mps 748 mmHg 93%
06:00 +8°C° 0 mm 4 mps 748 mmHg 93%
07:00 +9°C° 0 mm 5 mps 749 mmHg 85%
08:00 +9°C° 0 mm 5 mps 749 mmHg 77%
09:00 +10°C° 0 mm 6 mps 750 mmHg 69%
10:00 +11°C° 0 mm 6 mps 750 mmHg 65%
11:00 +13°C° 0 mm 6 mps 750 mmHg 61%
12:00 +13°C° 0 mm 6 mps 750 mmHg 58%
13:00 +13°C° 0 mm 6 mps 750 mmHg 58%
14:00 +13°C° 0 mm 6 mps 750 mmHg 59%
15:00 +13°C° 0 mm 6 mps 750 mmHg 60%
16:00 +11°C° 0 mm 6 mps 750 mmHg 63%
17:00 +12°C° 0 mm 5 mps 750 mmHg 66%
18:00 +10°C° 0 mm 5 mps 750 mmHg 69%
19:00 +10°C° 0 mm 5 mps 750 mmHg 72%
20:00 +10°C° 0 mm 5 mps 751 mmHg 74%
21:00 +10°C° 0 mm 5 mps 751 mmHg 76%
22:00 +10°C° 0 mm 5 mps 751 mmHg 78%
23:00 +10°C° 0 mm 5 mps 751 mmHg 80%

24 Octubre, Sábado

Tiempo Temperatura Precipitaciones Viento Presión Humedad
00:00 +10°C° 0 mm 5 mps 751 mmHg 82%
01:00 +10°C° 0.1 mm 5 mps 751 mmHg 84%
02:00 +10°C° 0.1 mm 5 mps 751 mmHg 86%
03:00 +11°C° 0.1 mm 4 mps 751 mmHg 88%
04:00 +11°C° 0.1 mm 4 mps 751 mmHg 88%
05:00 +11°C° 0.1 mm 4 mps 751 mmHg 89%
06:00 +11°C° 0.1 mm 3 mps 752 mmHg 90%
07:00 +12°C° 0 mm 4 mps 752 mmHg 88%
08:00 +12°C° 0 mm 4 mps 752 mmHg 87%
09:00 +12°C° 0 mm 5 mps 752 mmHg 85%
10:00 +13°C° 0 mm 5 mps 752 mmHg 82%
11:00 +14°C° 0 mm 5 mps 752 mmHg 79%
12:00 +14°C° 0 mm 5 mps 751 mmHg 76%
13:00 +15°C° 0 mm 5 mps 751 mmHg 74%
14:00 +15°C° 0 mm 5 mps 751 mmHg 72%
15:00 +16°C° 0 mm 5 mps 750 mmHg 70%
16:00 +15°C° 0 mm 4 mps 750 mmHg 74%
17:00 +14°C° 0 mm 4 mps 750 mmHg 78%
18:00 +13°C° 0 mm 4 mps 750 mmHg 82%
19:00 +12°C° 0 mm 4 mps 750 mmHg 83%
20:00 +12°C° 0 mm 3 mps 750 mmHg 84%
21:00 +12°C° 0 mm 3 mps 750 mmHg 85%
22:00 +11°C° 0 mm 3 mps 749 mmHg 87%
23:00 +11°C° 0 mm 3 mps 749 mmHg 89%

25 Octubre, Domingo

Tiempo Temperatura Precipitaciones Viento Presión Humedad
00:00 +10°C° 0 mm 4 mps 749 mmHg 91%
01:00 +10°C° 0 mm 4 mps 748 mmHg 92%
02:00 +10°C° 0 mm 4 mps 747 mmHg 92%
03:00 +8°C° 0 mm 4 mps 747 mmHg 93%
04:00 +8°C° 0 mm 4 mps 747 mmHg 92%
05:00 +8°C° 0 mm 4 mps 746 mmHg 92%
06:00 +7°C° 0 mm 4 mps 746 mmHg 92%
07:00 +8°C° 0 mm 4 mps 745 mmHg 86%
08:00 +10°C° 0 mm 4 mps 745 mmHg 80%
09:00 +11°C° 0 mm 4 mps 745 mmHg 74%
10:00 +13°C° 0 mm 5 mps 744 mmHg 66%
11:00 +15°C° 0 mm 5 mps 744 mmHg 58%
12:00 +17°C° 0 mm 5 mps 743 mmHg 51%
13:00 +18°C° 0 mm 4 mps 743 mmHg 51%
14:00 +18°C° 0 mm 4 mps 742 mmHg 51%
15:00 +18°C° 0 mm 3 mps 742 mmHg 51%
16:00 +17°C° 0 mm 3 mps 742 mmHg 56%
17:00 +16°C° 0 mm 3 mps 742 mmHg 61%
18:00 +13°C° 0 mm 3 mps 742 mmHg 66%
19:00 +13°C° 0 mm 3 mps 742 mmHg 71%
20:00 +12°C° 0 mm 3 mps 743 mmHg 76%
21:00 +12°C° 0 mm 3 mps 743 mmHg 81%
22:00 +11°C° 0 mm 3 mps 743 mmHg 85%
23:00 +11°C° 0 mm 3 mps 743 mmHg 89%

26 Octubre, Lunes

Tiempo Temperatura Precipitaciones Viento Presión Humedad
00:00 +10°C° 0 mm 2 mps 744 mmHg 93%
01:00 +10°C° 0 mm 3 mps 744 mmHg 90%
02:00 +11°C° 0 mm 3 mps 744 mmHg 86%
03:00 +11°C° 0 mm 3 mps 744 mmHg 83%
04:00 +10°C° 0.2 mm 3 mps 745 mmHg 84%
05:00 +10°C° 0.2 mm 3 mps 745 mmHg 84%
06:00 +9°C° 0.2 mm 3 mps 745 mmHg 84%
07:00 +10°C° 0 mm 3 mps 746 mmHg 82%
08:00 +10°C° 0 mm 3 mps 746 mmHg 79%
09:00 +11°C° 0 mm 3 mps 747 mmHg 77%
10:00 +12°C° 0 mm 3 mps 747 mmHg 70%
11:00 +13°C° 0 mm 3 mps 748 mmHg 64%
12:00 +14°C° 0 mm 3 mps 748 mmHg 57%
13:00 +14°C° 0 mm 3 mps 748 mmHg 57%
14:00 +14°C° 0 mm 3 mps 748 mmHg 56%
15:00 +14°C° 0 mm 3 mps 748 mmHg 56%
16:00 +13°C° 0 mm 3 mps 749 mmHg 61%
17:00 +12°C° 0 mm 3 mps 749 mmHg 66%
18:00 +10°C° 0 mm 2 mps 750 mmHg 72%
19:00 +10°C° 0 mm 2 mps 750 mmHg 74%
20:00 +10°C° 0 mm 2 mps 751 mmHg 76%
21:00 +9°C° 0 mm 2 mps 751 mmHg 78%
22:00 +9°C° 0 mm 2 mps 751 mmHg 79%
23:00 +9°C° 0 mm 2 mps 751 mmHg 80%
Mostrar más

Necesitamos Su Consentimiento

Meteoprog y nuestros Proveedores de Servicios pueden almacenar y acceder a sus datos personales como cookies, identificadores de dispositivo u otras tecnologías similares de su dispositivo y procesar dichos datos para personalizar contenido y anuncios, además de ofrecer funciones de redes sociales y analizar el tráfico.

  • Almacenar y/o acceder a información en su dispositivo

    Se puede almacenar o acceder a cookies, identificadores de dispositivo u otra información de su dispositivo para los fines anteriormente indicados.

  • Anuncios y contenido personalizados, medición de anuncios y contenido, percepciones del público, y desarrollo de productos

    Los anuncios y el contenido pueden personalizarse en base a su perfil. Se pueden añadir más datos para personalizar mejor los anuncios y contenidos. Se puede medir el rendimiento de los anuncios y contenidos. Se puede obtener la percepción sobre el público que ha visto los anuncios y contenidos. Dichos datos pueden usarse para desarrollar o mejorar la experiencia del usuario, sistemas y software.

Al hacer clic en ‘Estoy De Acuerdo’ usted permitirá el uso de las cookies, identificadores de dispositivo, balizas web u otras tecnologías similares indicadas. Su configuración puede cambiarse desde el navegador de su dispositivo.

Para ciertos fines, los intereses legítimos pueden ser considerados por encima del consentimiento. Puede leer más sobre ello en nuestra Política de Privacidad y Cookies.